EW6141 Weather Reports


Display with metric or nautical units.
time (UTC)temp
F
wind
direction
speed
MPH
gust
MPH
rain 1hr
in
rain 24hr
in
rain mn
in
humidity
%
barometer
mb
20211207171527 64 120 0.0 2.0 0.00 0.00 0.00 52 1016.8
20211207171026 63 120 0.0 2.0 0.00 0.00 0.00 53 1016.9
20211207170527 63 120 0.0 2.0 0.00 0.00 0.00 52 1017.0
20211207170027 63 120 0.0 3.0 0.00 0.00 0.00 51 1016.9
20211207165521 63 120 0.0 3.0 0.00 0.00 0.00 52 1017.1
20211207165014 63 92 0.0 1.0 0.00 0.00 0.00 52 1017.3
20211207164511 62 92 0.0 2.0 0.00 0.00 0.00 51 1017.4
20211207164005 62 92 0.0 2.0 0.00 0.00 0.00 51 1017.5
20211207163456 62 12 0.0 1.0 0.00 0.00 0.00 52 1017.5
20211207162956 62 30 0.0 1.0 0.00 0.00 0.00 53 1017.5
20211207162455 62 38 0.0 1.0 0.00 0.00 0.00 51 1017.4
20211207161955 62 38 0.0 1.0 0.00 0.00 0.00 51 1017.4
20211207161455 62 38 0.0 1.0 0.00 0.00 0.00 51 1017.5
20211207160954 62 38 0.0 1.0 0.00 0.00 0.00 51 1017.5
20211207160450 62 38 0.0 1.0 0.00 0.00 0.00 51 1017.6
20211207155951 62 38 0.0 1.0 0.00 0.00 0.00 51 1017.6
20211207155450 62 38 0.0 1.0 0.00 0.00 0.00 51 1017.5
20211207154951 62 38 0.0 1.0 0.00 0.00 0.00 50 1017.4
20211207154454 62 38 0.0 1.0 0.00 0.00 0.00 50 1017.5
20211207153951 62 38 0.0 1.0 0.00 0.00 0.00 49 1017.5
20211207153448 61 38 0.0 1.0 0.00 0.00 0.00 49 1017.5
20211207152947 61 36 0.0 1.0 0.00 0.00 0.00 48 1017.4
20211207152447 61 42 0.0 3.0 0.00 0.00 0.00 47 1017.4
20211207151946 61 327 0.0 3.0 0.00 0.00 0.00 48 1017.3
20211207151446 61 109 0.0 1.0 0.00 0.00 0.00 51 1017.3
20211207150946 61 109 0.0 1.0 0.00 0.00 0.00 51 1017.2
20211207150440 61 109 0.0 1.0 0.00 0.00 0.00 51 1017.4
20211207145934 61 109 0.0 1.0 0.00 0.00 0.00 51 1017.4
20211207145428 61 109 0.0 2.0 0.00 0.00 0.00 50 1017.4
20211207144921 61 109 0.0 2.0 0.00 0.00 0.00 49 1017.4
20211207144416 61 92 0.0 4.0 0.00 0.00 0.00 50 1017.4
20211207143913 61 92 0.0 4.0 0.00 0.00 0.00 48 1017.3
20211207143404 61 119 0.0 4.0 0.00 0.00 0.00 48 1017.3
20211207142857 61 97 0.0 1.0 0.00 0.00 0.00 49 1017.4
20211207142352 61 90 0.0 0.0 0.00 0.00 0.00 49 1017.4
20211207141846 61 90 0.0 2.0 0.00 0.00 0.00 49 1017.3
20211207141340 61 90 0.0 2.0 0.00 0.00 0.00 49 1017.4
20211207140834 61 311 0.0 1.0 0.00 0.00 0.00 49 1017.3
20211207140328 61 311 0.0 2.0 0.00 0.00 0.00 50 1017.2
20211207135822 61 311 0.0 2.0 0.00 0.00 0.00 48 1017.0
20211207135316 61 311 0.0 2.0 0.00 0.00 0.00 49 1016.9
20211207134810 61 118 0.0 1.0 0.00 0.00 0.00 49 1017.0
20211207134304 61 118 0.0 2.0 0.00 0.00 0.00 50 1017.0
20211207133758 61 118 0.0 2.0 0.00 0.00 0.00 49 1017.0
20211207133252 61 118 0.0 3.0 0.00 0.00 0.00 50 1017.0
20211207132746 61 118 0.0 3.0 0.00 0.00 0.00 49 1017.0
20211207132240 61 118 0.0 1.0 0.00 0.00 0.00 49 1017.0
20211207131734 61 118 0.0 1.0 0.00 0.00 0.00 50 1017.0
20211207131228 61 118 0.0 1.0 0.00 0.00 0.00 49 1017.1
20211207130723 61 118 0.0 1.0 0.00 0.00 0.00 49 1017.0
20211207130216 62 118 0.0 2.0 0.00 0.00 0.00 50 1017.0
20211207125717 62 118 0.0 2.0 0.00 0.00 0.00 50 1016.8
20211207125215 62 303 0.0 2.0 0.00 0.00 0.00 51 1016.8
20211207124713 62 303 0.0 2.0 0.00 0.00 0.00 52 1016.8
20211207124210 62 303 0.0 1.0 0.00 0.00 0.00 52 1016.8
20211207123708 62 303 0.0 2.0 0.00 0.00 0.00 52 1016.7
20211207123207 62 303 0.0 2.0 0.00 0.00 0.00 52 1016.7
20211207122705 62 303 0.0 2.0 0.00 0.00 0.00 52 1016.6
20211207122202 62 303 0.0 1.0 0.00 0.00 0.00 52 1016.6
20211207121659 62 303 0.0 1.0 0.00 0.00 0.00 52 1016.6
20211207121159 62 303 0.0 1.0 0.00 0.00 0.00 52 1016.4
20211207120658 62 303 0.0 1.0 0.00 0.00 0.00 53 1016.5
20211207120159 62 303 0.0 0.0 0.00 0.00 0.00 52 1016.5
20211207115659 62 303 0.0 1.0 0.00 0.00 0.00 51 1016.5
20211207115157 62 303 0.0 3.0 0.00 0.00 0.00 52 1016.4
20211207114654 62 303 0.0 4.0 0.00 0.00 0.00 51 1016.4
20211207114154 62 303 0.0 4.0 0.00 0.00 0.00 51 1016.4
20211207113653 62 317 0.0 2.0 0.00 0.00 0.00 51 1016.5
20211207113152 62 317 0.0 3.0 0.00 0.00 0.00 50 1016.6
20211207112651 62 317 0.0 3.0 0.00 0.00 0.00 51 1016.6
20211207112151 62 317 0.0 1.0 0.00 0.00 0.00 50 1016.6
20211207111651 62 317 0.0 2.0 0.00 0.00 0.00 51 1016.6
20211207111150 62 317 0.0 2.0 0.00 0.00 0.00 50 1016.7
20211207110649 62 317 0.0 3.0 0.00 0.00 0.00 50 1016.7
20211207110149 62 317 0.0 3.0 0.00 0.00 0.00 50 1016.8
20211207105649 62 317 0.0 2.0 0.00 0.00 0.00 50 1016.8
20211207105147 62 329 0.0 2.0 0.00 0.00 0.00 51 1016.8
20211207104644 62 9 0.0 6.0 0.00 0.00 0.00 51 1016.9
20211207104140 62 304 0.0 6.0 0.00 0.00 0.00 50 1017.0
20211207103641 62 328 0.0 2.0 0.00 0.00 0.00 51 1017.0
20211207103142 62 328 0.0 3.0 0.00 0.00 0.00 52 1017.1
20211207102639 62 328 0.0 3.0 0.00 0.00 0.00 51 1017.2
20211207102137 62 317 1.0 3.0 0.00 0.00 0.00 51 1017.3
20211207101634 63 282 0.0 3.0 0.00 0.00 0.00 51 1017.2
20211207101132 63 304 0.0 3.0 0.00 0.00 0.00 52 1017.1
20211207100633 63 321 1.0 4.0 0.00 0.00 0.00 51 1017.0
20211207100133 63 321 1.0 4.0 0.00 0.00 0.00 52 1017.2
20211207095633 63 311 0.0 3.0 0.00 0.00 0.00 53 1017.1
20211207095132 63 277 0.0 2.0 0.00 0.00 0.00 53 1017.0
20211207094633 63 277 0.0 3.0 0.00 0.00 0.00 54 1017.0
20211207094133 63 277 0.0 3.0 0.00 0.00 0.00 53 1016.9
20211207093633 63 104 0.0 1.0 0.00 0.00 0.00 54 1016.9
20211207093132 63 104 0.0 2.0 0.00 0.00 0.00 54 1016.8
20211207092633 63 104 0.0 2.0 0.00 0.00 0.00 53 1016.6
20211207092135 63 315 0.0 0.0 0.00 0.00 0.00 54 1016.8
20211207091632 63 315 0.0 0.0 0.00 0.00 0.00 55 1016.9
20211207091127 63 315 0.0 1.0 0.00 0.00 0.00 53 1017.0
20211207090620 63 315 0.0 2.0 0.00 0.00 0.00 53 1017.0
20211207090117 63 315 0.0 2.0 0.00 0.00 0.00 52 1017.1
20211207085608 63 91 0.0 1.0 0.00 0.00 0.00 52 1017.2
20211207085101 63 91 0.0 1.0 0.00 0.00 0.00 53 1017.1
20211207084556 63 94 0.0 2.0 0.00 0.00 0.00 52 1017.1
20211207084050 63 94 0.0 2.0 0.00 0.00 0.00 52 1017.2
20211207083545 63 97 0.0 2.0 0.00 0.00 0.00 52 1017.1
20211207083038 63 97 0.0 2.0 0.00 0.00 0.00 52 1017.0
20211207082536 64 86 0.0 1.0 0.00 0.00 0.00 53 1017.1
20211207082021 64 86 0.0 3.0 0.00 0.00 0.00 53 1017.1
20211207081517 64 86 0.0 3.0 0.00 0.00 0.00 54 1017.2
20211207081010 64 142 0.0 1.0 0.00 0.00 0.00 53 1017.2
20211207080504 64 142 0.0 1.0 0.00 0.00 0.00 53 1017.3
20211207075958 64 142 0.0 1.0 0.00 0.00 0.00 54 1017.3
20211207075452 64 142 0.0 1.0 0.00 0.00 0.00 54 1017.3
20211207074946 64 142 0.0 1.0 0.00 0.00 0.00 54 1017.3
20211207074439 64 142 0.0 2.0 0.00 0.00 0.00 54 1017.5
20211207073934 64 142 1.0 3.0 0.00 0.00 0.00 54 1017.5
20211207073428 64 298 1.0 3.0 0.00 0.00 0.00 54 1017.6
20211207072921 64 103 0.0 4.0 0.00 0.00 0.00 54 1017.6
20211207072416 64 149 0.0 4.0 0.00 0.00 0.00 55 1017.5
20211207071910 64 122 1.0 3.0 0.00 0.00 0.00 55 1017.5
20211207071405 64 122 1.0 3.0 0.00 0.00 0.00 55 1017.4
20211207070859 64 348 0.0 2.0 0.00 0.00 0.00 55 1017.5
20211207070352 64 5 0.0 2.0 0.00 0.00 0.00 55 1017.5
20211207065846 65 146 0.0 3.0 0.00 0.00 0.00 55 1017.6
20211207065340 65 146 1.0 4.0 0.00 0.00 0.00 55 1017.5
20211207064834 65 146 1.0 4.0 0.00 0.00 0.00 59 1017.6
20211207064328 65 340 1.0 4.0 0.00 0.00 0.00 58 1017.6
20211207063823 65 323 1.0 4.0 0.00 0.00 0.00 58 1017.6
20211207063316 65 321 1.0 5.0 0.00 0.00 0.00 59 1017.6
20211207062810 65 336 1.0 5.0 0.00 0.00 0.00 59 1017.7
20211207062305 65 355 1.0 5.0 0.00 0.00 0.00 58 1017.8
20211207061805 65 309 2.0 7.0 0.00 0.00 0.00 59 1017.8
20211207061304 65 53 1.0 7.0 0.00 0.00 0.00 58 1017.8
20211207060804 65 309 1.0 6.0 0.00 0.00 0.00 59 1017.9
20211207060302 65 343 1.0 6.0 0.00 0.00 0.00 59 1018.0
20211207055801 65 340 1.0 8.0 0.00 0.00 0.00 59 1018.1
20211207055300 66 117 2.0 8.0 0.00 0.00 0.00 60 1018.1
20211207054801 66 342 1.0 4.0 0.00 0.00 0.00 61 1018.0
20211207054258 66 124 1.0 5.0 0.00 0.00 0.00 61 1018.0
20211207053757 66 343 1.0 5.0 0.00 0.00 0.00 61 1017.9
20211207053256 66 22 1.0 4.0 0.00 0.00 0.00 61 1018.0
20211207052756 66 315 1.0 6.0 0.00 0.00 0.00 62 1018.1
20211207052256 66 355 1.0 6.0 0.00 0.00 0.00 62 1018.1
20211207051756 66 329 1.0 5.0 0.00 0.00 0.00 61 1018.1
20211207051258 66 329 1.0 6.0 0.00 0.00 0.00 61 1018.1
20211207050757 66 337 2.0 9.0 0.00 0.00 0.00 61 1018.2
20211207050254 67 326 2.0 9.0 0.00 0.00 0.00 61 1018.3
20211207045754 67 332 1.0 6.0 0.00 0.00 0.00 62 1018.3
20211207045254 67 328 1.0 6.0 0.00 0.00 0.00 63 1018.2
20211207044753 67 355 1.0 5.0 0.00 0.00 0.00 62 1018.2
20211207044254 67 339 1.0 7.0 0.00 0.00 0.00 63 1018.2
20211207043754 67 340 1.0 7.0 0.00 0.00 0.00 63 1018.1
20211207043254 67 315 1.0 4.0 0.00 0.00 0.00 63 1018.1
20211207042754 67 332 1.0 4.0 0.00 0.00 0.00 63 1018.1
20211207042256 68 335 1.0 4.0 0.00 0.00 0.00 63 1018.1
20211207041754 68 338 1.0 6.0 0.00 0.00 0.00 63 1018.1
20211207041254 68 317 2.0 6.0 0.00 0.00 0.00 63 1018.0
20211207040748 68 279 2.0 8.0 0.00 0.00 0.00 62 1018.0
20211207040248 68 332 1.0 8.0 0.00 0.00 0.00 63 1018.1
20211207035748 68 317 1.0 5.0 0.00 0.00 0.00 63 1018.0
20211207035249 68 330 1.0 9.0 0.00 0.00 0.00 63 1018.0
20211207034748 68 338 1.0 9.0 0.00 0.00 0.00 63 1018.0
20211207034248 68 329 2.0 7.0 0.00 0.00 0.00 63 1018.0
20211207033746 68 292 1.0 7.0 0.00 0.00 0.00 63 1018.0
20211207033246 68 336 1.0 6.0 0.00 0.00 0.00 63 1018.0
20211207032746 68 153 2.0 11.0 0.00 0.00 0.00 63 1018.0
20211207032246 69 318 2.0 11.0 0.00 0.00 0.00 63 1017.9
20211207031742 69 340 2.0 8.0 0.00 0.00 0.00 64 1017.8
20211207031242 69 331 2.0 10.0 0.00 0.00 0.00 64 1017.7
20211207030742 69 336 2.0 10.0 0.00 0.00 0.00 65 1017.8
20211207030242 69 338 2.0 7.0 0.00 0.00 0.00 65 1017.7
20211207025743 69 338 2.0 8.0 0.00 0.00 0.00 65 1017.7
20211207025243 69 333 2.0 8.0 0.00 0.00 0.00 65 1017.5
20211207024743 69 313 2.0 8.0 0.00 0.00 0.00 65 1017.4
20211207024242 69 325 3.0 10.0 0.00 0.00 0.00 64 1017.3
20211207023743 69 269 3.0 10.0 0.00 0.00 0.00 64 1017.2
20211207023237 69 331 4.0 16.0 0.00 0.00 0.00 65 1017.3
20211207022735 70 333 4.0 16.0 0.00 0.00 0.00 64 1017.3
20211207022236 70 294 3.0 10.0 0.00 0.00 0.00 64 1017.2
20211207021737 70 336 3.0 10.0 0.00 0.00 0.00 64 1017.2
20211207021238 70 306 3.0 9.0 0.00 0.00 0.00 65 1017.0
20211207020736 71 109 2.0 9.0 0.00 0.00 0.00 65 1016.8
20211207020236 71 122 2.0 10.0 0.00 0.00 0.00 66 1016.7
20211207015736 71 325 3.0 10.0 0.00 0.00 0.00 66 1016.6
20211207015236 71 327 3.0 10.0 0.00 0.00 0.00 67 1016.6
20211207014736 71 332 2.0 9.0 0.00 0.00 0.00 67 1016.5
20211207014235 72 326 2.0 8.0 0.00 0.00 0.00 67 1016.3
20211207013730 72 34 2.0 9.0 0.00 0.00 0.00 67 1016.2
20211207013223 72 333 3.0 12.0 0.00 0.00 0.00 67 1016.1
20211207012717 73 271 3.0 12.0 0.00 0.00 0.00 67 1015.9
20211207012211 73 297 2.0 9.0 0.00 0.00 0.00 68 1015.9
20211207011705 73 80 2.0 8.0 0.00 0.00 0.00 69 1015.7
20211207011200 74 327 2.0 9.0 0.00 0.00 0.00 70 1015.6
20211207010653 74 338 2.0 9.0 0.00 0.00 0.00 69 1015.5
20211207010148 74 9 3.0 11.0 0.00 0.00 0.00 69 1015.5
20211207005641 74 47 3.0 11.0 0.00 0.00 0.00 70 1015.2
20211207005136 75 344 2.0 11.0 0.00 0.00 0.00 71 1015.1
20211207004630 75 56 2.0 9.0 0.00 0.00 0.00 72 1015.1
20211207004123 76 342 2.0 9.0 0.00 0.00 0.00 73 1014.9
20211207003617 76 333 2.0 9.0 0.00 0.00 0.00 74 1014.8
20211207003111 76 331 1.0 9.0 0.00 0.00 0.00 75 1014.5
20211207002607 75 306 1.0 5.0 0.00 0.00 0.00 71 1014.5
20211207002101 75 342 3.0 9.0 0.00 0.00 0.00 70 1014.2
20211207001554 76 301 4.0 13.0 0.00 0.00 0.00 69 1014.2
20211207001047 76 291 5.0 13.0 0.00 0.00 0.00 69 1014.0
20211207000541 77 248 4.0 11.0 0.00 0.00 0.00 68 1013.8
20211207000035 79 321 2.0 10.0 0.00 0.00 0.00 66 1013.8
20211206235529 80 273 0.0 2.0 0.00 0.00 0.00 73 1013.6
20211206235025 80 351 0.0 1.0 0.00 0.00 0.00 73 1013.4
20211206234517 81 5 0.0 0.0 0.00 0.00 0.00 72 1013.3
20211206234009 81 5 0.0 0.0 0.00 0.00 0.00 71 1013.2
20211206233508 81 5 0.0 0.0 0.00 0.00 0.00 71 1013.1
20211206232953 82 5 0.0 0.0 0.00 0.00 0.00 71 1013.0
20211206232447 82 5 0.0 2.0 0.00 0.00 0.00 70 1013.0
20211206231941 82 5 0.0 2.0 0.00 0.00 0.00 70 1013.1
20211206231435 82 5 0.0 2.0 0.00 0.00 0.00 70 1013.1
20211206230929 83 5 0.0 2.0 0.00 0.00 0.00 69 1013.0
20211206230423 83 341 0.0 2.0 0.00 0.00 0.00 69 1012.9
20211206225917 83 350 0.0 3.0 0.00 0.00 0.00 69 1013.0
20211206225411 83 333 0.0 4.0 0.00 0.00 0.00 68 1012.9
20211206224905 83 151 0.0 4.0 0.00 0.00 0.00 69 1013.0
20211206224359 83 150 0.0 2.0 0.00 0.00 0.00 70 1012.8
20211206223855 83 150 0.0 2.0 0.00 0.00 0.00 70 1012.8
20211206223347 83 331 0.0 2.0 0.00 0.00 0.00 69 1012.7
20211206222841 83 55 1.0 5.0 0.00 0.00 0.00 69 1012.7
20211206222335 83 343 0.0 5.0 0.00 0.00 0.00 69 1012.5
20211206221832 84 274 0.0 3.0 0.00 0.00 0.00 69 1012.5
20211206221323 84 300 1.0 3.0 0.00 0.00 0.00 69 1012.4
20211206220817 84 163 0.0 3.0 0.00 0.00 0.00 68 1012.4
20211206220311 84 120 1.0 3.0 0.00 0.00 0.00 68 1012.3
20211206215808 84 120 1.0 3.0 0.00 0.00 0.00 68 1012.3
20211206215259 84 120 0.0 3.0 0.00 0.00 0.00 68 1012.2
20211206214753 84 95 0.0 3.0 0.00 0.00 0.00 69 1012.3
20211206214247 84 317 1.0 4.0 0.00 0.00 0.00 68 1012.2
20211206213741 84 299 1.0 4.0 0.00 0.00 0.00 69 1012.1
20211206213236 84 304 1.0 3.0 0.00 0.00 0.00 69 1012.1
20211206212729 84 111 0.0 2.0 0.00 0.00 0.00 68 1012.0
20211206212224 84 109 1.0 4.0 0.00 0.00 0.00 69 1012.0
20211206211717 84 109 1.0 4.0 0.00 0.00 0.00 67 1012.0
20211206211211 84 63 1.0 8.0 0.00 0.00 0.00 68 1012.0
20211206210709 84 304 1.0 8.0 0.00 0.00 0.00 67 1012.0
20211206210209 84 117 1.0 3.0 0.00 0.00 0.00 67 1012.0
20211206205710 84 117 1.0 3.0 0.00 0.00 0.00 67 1012.1
20211206205211 85 328 1.0 5.0 0.00 0.00 0.00 68 1012.1
20211206204707 85 304 1.0 6.0 0.00 0.00 0.00 67 1012.1
20211206204205 85 309 1.0 6.0 0.00 0.00 0.00 67 1012.2
20211206203706 85 315 1.0 3.0 0.00 0.00 0.00 69 1012.1
20211206203206 84 315 1.0 6.0 0.00 0.00 0.00 69 1012.2
20211206202706 84 312 2.0 6.0 0.00 0.00 0.00 70 1012.2
20211206202205 84 340 1.0 4.0 0.00 0.00 0.00 69 1012.3
20211206201705 83 312 1.0 3.0 0.00 0.00 0.00 71 1012.2
20211206201205 83 91 1.0 4.0 0.00 0.00 0.00 71 1012.3
20211206200705 82 314 2.0 8.0 0.00 0.00 0.00 72 1012.5
20211206200205 82 321 2.0 9.0 0.00 0.00 0.00 73 1012.6
20211206195708 82 287 2.0 9.0 0.00 0.00 0.00 72 1012.7
20211206195203 82 320 2.0 8.0 0.00 0.00 0.00 72 1012.7
20211206194701 82 294 2.0 6.0 0.00 0.00 0.00 72 1012.8
20211206194202 83 331 2.0 6.0 0.00 0.00 0.00 72 1012.8
20211206193701 83 335 1.0 4.0 0.00 0.00 0.00 72 1012.7
20211206193201 83 317 1.0 4.0 0.00 0.00 0.00 72 1012.8
20211206192702 83 330 2.0 5.0 0.00 0.00 0.00 73 1012.7
20211206192159 83 306 1.0 5.0 0.00 0.00 0.00 72 1012.6
20211206191659 83 323 1.0 4.0 0.00 0.00 0.00 71 1012.7
20211206191158 83 321 1.0 6.0 0.00 0.00 0.00 73 1012.6
20211206190657 82 263 1.0 6.0 0.00 0.00 0.00 72 1012.7
20211206190156 82 319 1.0 3.0 0.00 0.00 0.00 72 1012.7
20211206185655 82 292 1.0 3.0 0.00 0.00 0.00 72 1012.7
20211206185155 82 291 1.0 3.0 0.00 0.00 0.00 73 1012.7
20211206184656 82 291 1.0 3.0 0.00 0.00 0.00 73 1012.6
20211206184155 82 325 1.0 3.0 0.00 0.00 0.00 73 1012.7
20211206183655 82 323 1.0 2.0 0.00 0.00 0.00 73 1012.8
20211206183155 82 323 0.0 2.0 0.00 0.00 0.00 72 1012.9
20211206182653 82 323 0.0 2.0 0.00 0.00 0.00 72 1012.9
20211206182153 82 349 0.0 2.0 0.00 0.00 0.00 72 1012.9
20211206181653 82 236 0.0 2.0 0.00 0.00 0.00 72 1013.0
20211206181153 82 249 0.0 2.0 0.00 0.00 0.00 73 1013.0
20211206180653 82 245 0.0 2.0 0.00 0.00 0.00 72 1013.1
20211206180153 82 244 0.0 2.0 0.00 0.00 0.00 72 1013.1
20211206175652 81 245 0.0 2.0 0.00 0.00 0.00 74 1013.2
20211206175152 81 245 0.0 2.0 0.00 0.00 0.00 73 1013.3
20211206174651 81 246 0.0 2.0 0.00 0.00 0.00 75 1013.5
20211206174148 80 153 1.0 3.0 0.00 0.00 0.00 76 1013.4
20211206173647 80 252 0.0 3.0 0.00 0.00 0.00 76 1013.7
20211206173147 80 254 0.0 1.0 0.00 0.00 0.00 78 1013.7
20211206172647 79 254 0.0 2.0 0.00 0.00 0.00 78 1013.7
20211206172147 79 254 1.0 2.0 0.00 0.00 0.00 78 1013.7